Orbital Elements at Epoch 2459200.5 (2020-Dec-17.0) TDB
Reference: JPL 17 (heliocentric ecliptic J2000)
Element | Value | Uncertainty (1-sigma) | Units |
e | .1203321881744274 | 4.5799e-08 | |
a | 2.35312536941126 | 9.3884e-09 | au |
q | 2.069968644661246 | 1.0796e-07 | au |
i | 3.17666798969575 | 5.1975e-06 | deg |
node | 118.1945454251225 | 8.204e-05 | deg |
peri | 356.0346148393746 | 8.5397e-05 | deg |
M | 351.7772462110925 | 2.1001e-05 | deg |
tp | 2459230.614857446941 (2021-Jan-16.11485745) | 7.6894e-05 | TDB |
period | 1318.457168877391 3.61 | 7.8905e-06 2.16e-08 | d yr |
n | .2730464125023677 | 1.6341e-09 | deg/d |
Q | 2.636282094161275 | 1.0518e-08 | au |
|
| | Orbit Determination Parameters
Additional Information
|